星链-36931(STARLINK-36931)

导读

STARLINK-36931(NORAD编号68000)是美国SpaceX公司星链(Starlink)星座中的一颗互联网通信卫星。作为SpaceX大规模低轨卫星互联网项目的组成部分,它运行于近地轨道,旨在为全球提供高速宽带互联网接入服务,尤其服务偏远地区与网络基础设施薄弱区域。 2026年SpaceX启动四千颗星链卫星降轨计划,STARLINK-36931属于该批次降轨范围,轨道高度将从原550公里下调至480公里,以此降低碰撞风险,减少空间碎片,提升太空运行安全性,应对近地轨道拥挤问题。

基本信息
目录编号:
68000
目录名称:
STARLINK-36931
国际标识:
2026-039Q
轨道中心:
EARTH
卫星名称:
星链-36931
卫星全名:
星链-36931(STARLINK-36931)
卫星状态:
在轨 (已飞行151 天)
发射日期:
2026-02-27 UTC
国别 :
美国 (US)
星等 :
--
轨道信息
数据来源 国际轨道数据
星历时间: 2026-07-27T23:37:20+0800
10小时前
查看轨道信息
半长轴: 6861.144km
偏心率: 0.0001567
轨道倾角: 43.001°
近地点辐角 277.758°
升交点赤经 338.072°
平近点角 82.310°
近地点: 481.931km
远地点: 484.083km
周期: 94.266分钟
每日圈数: 15.275941
详细信息
固有亮度:
5
最大亮度:
2.5
卫星平台:
Starlink V1.0
覆盖范围:
全球
运营商:
太空探索技术公司
运营商所在国:
美国
制造商(研发单位):
太空探索技术公司
制造商所在国:
美国
使用方式:
暂无
卫星简介
Starlink 计划是 SpaceX 推出的全球卫星互联网项目,通过发射低轨道卫星,为全球尤其是偏远地区提供高速、低延迟的互联网服务。自 2019 年起,Starlink 已部署数千颗卫星,旨在缩小全球数字鸿沟,推动互联网普及。该项目还为军事、航空等行业提供通信支持,带来广泛经济效益。
2D轨道图
3D轨道图
轨道高度分析图
轨道倾角分析图
轨道综合分析图
查看轨道综合分析图